Regional Weather Roundup
Issued by NWS Albany, NY

Home | Current Version | Previous Version | Graphics & Text | Print | Product List | Glossary Off
Versions: 1 2 3 4 5 6 7 8 9 10 11 12 13 14 15 16 17 18 19 20 21 22 23 24 25 26 27 28 29 30 31 32 33 34 35 36 37 38 39 40 41 42 43 44 45 46 47 48 49 50

000
ASUS41 KALY 231310
RWRALY

NEW YORK STATE HOURLY WEATHER ROUNDUP
NATIONAL WEATHER SERVICE ALBANY NY
900 AM EDT SAT AUG 23 2014

NOTE: "FAIR" INDICATES FEW OR NO CLOUDS BELOW 12,000 FEET WITH NO
SIGNIFICANT WEATHER AND/OR NO OBSTRUCTIONS TO VISIBILITY.

NYZ032-033-038>043-046>054-057>066-NYZ062>081-231400-
EAST


CITY           SKY/WX    TMP DP  RH WIND       PRES   REMARKS
ALBANY         CLOUDY    64  61  90 N3        30.13R
GLENS FALLS    CLOUDY    65  58  78 N6        30.14R
POUGHKEEPSIE   CLOUDY    68  60  75 NE5       30.10R
MONTGOMERY     CLOUDY    67  61  81 NE6       30.10S
WHITE PLAINS   PTSUNNY   67  60  78 E7        30.09S
ISLIP          PTSUNNY   69  60  73 NE9       30.07R
NEW YORK CITY  PTSUNNY   69  60  73 E12       30.08S
CENTRAL PARK   CLOUDY    69  59  70 NE8       30.11S
$$

NYZ005>009-017-018-044>046-055-056-231400-
CENTRAL


CITY           SKY/WX    TMP DP  RH WIND       PRES   REMARKS
FULTON         CLOUDY    66  61  84 SE8       30.07S
SYRACUSE       CLOUDY    66  62  87 E12       30.08R
ROME           CLOUDY    65  61  87 E7        30.12S
ELMIRA         CLOUDY    66  63  90 VRB5      30.06R
BINGHAMTON     CLOUDY    63  59  87 SE7       30.10R
MONTICELLO     CLOUDY    63  59  88 E8        30.13S
$$

NYZ026>034-041>043-231400-
NORTH


CITY           SKY/WX    TMP DP  RH WIND       PRES   REMARKS
WATERTOWN      LGT RAIN  65  60  84 NE7       30.09S
FORT DRUM      NOT AVBL
MASSENA        SUNNY     67  62  84 E6        30.14R
SARANAC LAKE   PTSUNNY   61  57  87 NE8       30.15S
PLATTSBURGH    MOSUNNY   67  63  87 CALM      30.15S
$$

NYZ001>004-010>016-019>021-231400-
WEST


CITY           SKY/WX    TMP DP  RH WIND       PRES   REMARKS
NIAGARA FALLS  CLOUDY    66  64  93 E8        30.05S
BUFFALO        CLOUDY    67  64  90 NE7       30.05S
DUNKIRK        CLOUDY    67  65  93 VRB7      30.04S
JAMESTOWN      CLOUDY    64  63  94 NE6       30.06S
WELLSVILLE     CLOUDY    66  64  93 VRB3      30.09R
ROCHESTER      CLOUDY    69  66  90 NE6       30.05S
PENN YAN       CLOUDY    67  63  87 SE8       30.07R
$$

             KEY
       WCI = WIND CHILL INDEX
       VSB = VISIBILITY
       HX  = HEAT INDEX
$$


USA.gov is the U.S. government's official web portal to all federal, state and local government web resources and services.